Time,TemperatureF,DewpointF,PressureIn,WindDirection,WindDirectionDegrees,WindSpeedMPH,WindSpeedGustMPH,Humidity,HourlyPrecipIn,Conditions,Clouds,dailyrainin,SoftwareType,DateUTC
2013-10-30 00:04:00,48.4,43.8,29.93,East,98,0.0,0.0,84,0.00,,---,0.00,VWS V14.01,2013-10-30 07:04:00,
2013-10-30 00:09:00,48.3,44.0,29.93,East,96,1.0,0.0,85,0.00,,---,0.00,VWS V14.01,2013-10-30 07:09:00,
2013-10-30 00:14:00,48.2,43.9,29.93,ESE,103,2.0,0.0,85,0.00,,---,0.00,VWS V14.01,2013-10-30 07:14:00,
2013-10-30 00:19:00,48.1,43.8,29.93,East,88,0.0,0.0,85,0.00,,---,0.00,VWS V14.01,2013-10-30 07:19:00,
2013-10-30 00:25:00,48.0,43.7,29.93,East,99,0.0,0.0,85,0.00,,---,0.00,VWS V14.01,2013-10-30 07:25:00,
2013-10-30 00:30:00,47.9,43.6,29.93,East,98,1.0,0.0,85,0.00,,---,0.00,VWS V14.01,2013-10-30 07:30:00,
2013-10-30 00:35:00,47.8,43.5,29.93,East,91,0.0,0.0,85,0.00,,---,0.00,VWS V14.01,2013-10-30 07:35:00,
2013-10-30 00:40:00,47.7,43.4,29.93,East,91,2.0,0.0,85,0.00,,---,0.00,VWS V14.01,2013-10-30 07:40:00,
2013-10-30 00:45:00,47.6,43.3,29.93,East,91,2.0,0.0,85,0.00,,---,0.00,VWS V14.01,2013-10-30 07:45:00,
2013-10-30 00:50:00,47.4,43.1,29.93,East,96,0.0,0.0,85,0.00,,---,0.00,VWS V14.01,2013-10-30 07:50:00,
2013-10-30 00:55:00,47.4,43.1,29.93,East,89,2.0,0.0,85,0.00,,---,0.00,VWS V14.01,2013-10-30 07:55:00,
2013-10-30 01:00:00,47.3,43.0,29.93,East,93,1.0,0.0,85,0.00,,---,0.00,VWS V14.01,2013-10-30 08:00:00,
2013-10-30 01:05:00,47.2,42.9,29.93,East,97,0.0,0.0,85,0.00,,---,0.00,VWS V14.01,2013-10-30 08:05:00,
2013-10-30 01:10:00,47.2,42.9,29.93,East,90,1.0,0.0,85,0.00,,---,0.00,VWS V14.01,2013-10-30 08:10:00,
2013-10-30 01:15:00,47.1,42.8,29.93,East,99,0.0,0.0,85,0.00,,---,0.00,VWS V14.01,2013-10-30 08:15:00,
2013-10-30 01:20:00,47.0,42.7,29.94,East,101,0.0,0.0,85,0.00,,---,0.00,VWS V14.01,2013-10-30 08:20:00,
2013-10-30 01:25:00,46.9,42.6,29.93,East,97,0.0,0.0,85,0.00,,---,0.00,VWS V14.01,2013-10-30 08:25:00,
2013-10-30 01:31:00,46.9,42.6,29.93,East,96,0.0,0.0,85,0.00,,---,0.00,VWS V14.01,2013-10-30 08:31:00,
2013-10-30 01:36:00,46.8,42.5,29.94,East,95,0.0,0.0,85,0.00,,---,0.00,VWS V14.01,2013-10-30 08:36:00,
2013-10-30 01:41:00,46.8,42.5,29.94,East,96,0.0,0.0,85,0.00,,---,0.00,VWS V14.01,2013-10-30 08:41:00,
2013-10-30 01:46:00,46.8,42.5,29.94,East,87,1.0,0.0,85,0.00,,---,0.00,VWS V14.01,2013-10-30 08:46:00,
2013-10-30 01:51:00,46.7,42.4,29.94,East,87,0.0,0.0,85,0.00,,---,0.00,VWS V14.01,2013-10-30 08:51:00,
2013-10-30 01:56:00,46.7,42.1,29.94,East,88,1.0,0.0,84,0.00,,---,0.00,VWS V14.01,2013-10-30 08:56:00,
2013-10-30 02:01:00,46.6,42.0,29.94,East,97,0.0,0.0,84,0.00,,---,0.00,VWS V14.01,2013-10-30 09:01:00,
2013-10-30 02:06:00,46.5,41.9,29.94,East,95,0.0,0.0,84,0.00,,---,0.00,VWS V14.01,2013-10-30 09:06:00,
2013-10-30 02:11:00,46.5,41.9,29.94,East,96,2.0,0.0,84,0.00,,---,0.00,VWS V14.01,2013-10-30 09:11:00,
2013-10-30 02:16:00,46.4,41.8,29.94,East,86,2.0,0.0,84,0.00,,---,0.00,VWS V14.01,2013-10-30 09:16:00,
2013-10-30 02:21:00,46.4,41.8,29.94,East,95,0.0,0.0,84,0.00,,---,0.00,VWS V14.01,2013-10-30 09:21:00,
2013-10-30 02:26:00,46.3,41.7,29.94,East,96,1.0,0.0,84,0.00,,---,0.00,VWS V14.01,2013-10-30 09:26:00,
2013-10-30 02:31:00,46.1,41.5,29.94,East,88,0.0,0.0,84,0.00,,---,0.00,VWS V14.01,2013-10-30 09:31:00,
2013-10-30 02:36:00,46.0,41.8,29.94,ESE,103,0.0,0.0,85,0.00,,---,0.00,VWS V14.01,2013-10-30 09:36:00,
2013-10-30 02:41:00,46.0,41.8,29.94,East,92,2.0,0.0,85,0.00,,---,0.00,VWS V14.01,2013-10-30 09:41:00,
2013-10-30 02:46:00,45.9,41.7,29.94,East,80,2.0,0.0,85,0.00,,---,0.00,VWS V14.01,2013-10-30 09:46:00,
2013-10-30 02:51:00,45.8,41.5,29.94,East,87,3.0,0.0,85,0.00,,---,0.00,VWS V14.01,2013-10-30 09:51:00,
2013-10-30 02:56:00,45.7,41.5,29.94,East,85,1.0,0.0,85,0.00,,---,0.00,VWS V14.01,2013-10-30 09:56:00,
2013-10-30 03:01:00,45.6,41.4,29.94,East,101,2.0,0.0,85,0.00,,---,0.00,VWS V14.01,2013-10-30 10:01:00,
2013-10-30 03:06:00,45.5,41.3,29.94,ESE,104,0.0,0.0,85,0.00,,---,0.00,VWS V14.01,2013-10-30 10:06:00,
2013-10-30 03:11:00,45.5,41.3,29.94,East,98,0.0,0.0,85,0.00,,---,0.00,VWS V14.01,2013-10-30 10:11:00,
2013-10-30 03:16:00,45.5,41.3,29.94,East,97,0.0,0.0,85,0.00,,---,0.00,VWS V14.01,2013-10-30 10:16:00,
2013-10-30 03:21:00,45.4,41.2,29.94,East,84,0.0,0.0,85,0.00,,---,0.00,VWS V14.01,2013-10-30 10:21:00,
2013-10-30 03:26:00,45.3,41.1,29.95,East,100,2.0,0.0,85,0.00,,---,0.00,VWS V14.01,2013-10-30 10:26:00,
2013-10-30 03:31:00,45.2,41.0,29.94,East,92,2.0,0.0,85,0.00,,---,0.00,VWS V14.01,2013-10-30 10:31:00,
2013-10-30 03:36:00,45.2,40.7,29.94,East,95,0.0,0.0,84,0.00,,---,0.00,VWS V14.01,2013-10-30 10:36:00,
2013-10-30 03:41:00,45.1,40.6,29.94,East,92,2.0,0.0,84,0.00,,---,0.00,VWS V14.01,2013-10-30 10:41:00,
2013-10-30 03:46:00,45.1,40.9,29.95,East,84,0.0,0.0,85,0.00,,---,0.00,VWS V14.01,2013-10-30 10:46:00,
2013-10-30 03:51:00,45.1,40.9,29.95,NE,54,0.0,0.0,85,0.00,,---,0.00,VWS V14.01,2013-10-30 10:51:00,
2013-10-30 03:56:00,45.0,40.8,29.94,NE,55,0.0,0.0,85,0.00,,---,0.00,VWS V14.01,2013-10-30 10:56:00,
2013-10-30 04:01:00,45.0,40.5,29.94,East,92,0.0,0.0,84,0.00,,---,0.00,VWS V14.01,2013-10-30 11:01:00,
2013-10-30 04:06:00,44.9,40.7,29.95,East,94,0.0,0.0,85,0.00,,---,0.00,VWS V14.01,2013-10-30 11:06:00,
2013-10-30 04:11:00,44.9,40.7,29.95,East,98,0.0,0.0,85,0.00,,---,0.00,VWS V14.01,2013-10-30 11:11:00,
2013-10-30 04:16:00,44.8,40.3,29.94,East,100,0.0,0.0,84,0.00,,---,0.00,VWS V14.01,2013-10-30 11:16:00,
2013-10-30 04:21:00,44.8,40.3,29.95,East,101,0.0,0.0,84,0.00,,---,0.00,VWS V14.01,2013-10-30 11:21:00,
2013-10-30 04:26:00,44.7,40.5,29.95,East,101,0.0,0.0,85,0.00,,---,0.00,VWS V14.01,2013-10-30 11:26:00,
2013-10-30 04:32:00,44.6,40.1,29.95,East,101,0.0,0.0,84,0.00,,---,0.00,VWS V14.01,2013-10-30 11:32:00,
2013-10-30 04:37:00,44.6,40.1,29.95,East,101,0.0,0.0,84,0.00,,---,0.00,VWS V14.01,2013-10-30 11:37:00,
2013-10-30 04:42:00,44.5,40.0,29.95,East,86,1.0,0.0,84,0.00,,---,0.00,VWS V14.01,2013-10-30 11:42:00,
2013-10-30 04:47:00,44.5,40.0,29.95,ESE,113,0.0,0.0,84,0.00,,---,0.00,VWS V14.01,2013-10-30 11:47:00,
2013-10-30 04:52:00,44.5,40.0,29.95,ESE,107,0.0,0.0,84,0.00,,---,0.00,VWS V14.01,2013-10-30 11:52:00,
2013-10-30 04:57:00,44.4,39.9,29.95,East,94,0.0,0.0,84,0.00,,---,0.00,VWS V14.01,2013-10-30 11:57:00,
2013-10-30 05:02:00,44.3,39.8,29.95,East,94,0.0,0.0,84,0.00,,---,0.00,VWS V14.01,2013-10-30 12:02:00,
2013-10-30 05:07:00,44.3,40.1,29.96,East,97,0.0,0.0,85,0.00,,---,0.00,VWS V14.01,2013-10-30 12:07:00,
2013-10-30 05:12:00,44.2,39.7,29.96,East,98,1.0,0.0,84,0.00,,---,0.00,VWS V14.01,2013-10-30 12:12:00,
2013-10-30 05:17:00,44.2,40.0,29.96,ESE,103,0.0,0.0,85,0.00,,---,0.00,VWS V14.01,2013-10-30 12:17:00,
2013-10-30 05:22:00,44.2,40.0,29.96,ESE,103,0.0,0.0,85,0.00,,---,0.00,VWS V14.01,2013-10-30 12:22:00,
2013-10-30 05:27:00,44.1,39.9,29.96,East,97,0.0,0.0,85,0.00,,---,0.00,VWS V14.01,2013-10-30 12:27:00,
2013-10-30 05:32:00,44.1,39.9,29.96,ESE,110,0.0,0.0,85,0.00,,---,0.00,VWS V14.01,2013-10-30 12:32:00,
2013-10-30 05:37:00,44.0,39.8,29.97,ESE,110,0.0,0.0,85,0.00,,---,0.00,VWS V14.01,2013-10-30 12:37:00,
2013-10-30 05:42:00,44.0,39.8,29.97,East,92,0.0,0.0,85,0.00,,---,0.00,VWS V14.01,2013-10-30 12:42:00,
2013-10-30 05:47:00,43.8,39.6,29.97,East,90,1.0,0.0,85,0.00,,---,0.00,VWS V14.01,2013-10-30 12:47:00,
2013-10-30 05:52:00,43.8,39.3,29.97,East,89,4.0,0.0,84,0.00,,---,0.00,VWS V14.01,2013-10-30 12:52:00,
2013-10-30 05:57:00,43.7,39.2,29.97,East,96,0.0,0.0,84,0.00,,---,0.00,VWS V14.01,2013-10-30 12:57:00,
2013-10-30 06:02:00,43.7,39.5,29.97,ENE,59,0.0,0.0,85,0.00,,---,0.00,VWS V14.01,2013-10-30 13:02:00,
2013-10-30 06:07:00,43.7,39.5,29.97,ESE,113,0.0,0.0,85,0.00,,---,0.00,VWS V14.01,2013-10-30 13:07:00,
2013-10-30 06:12:00,43.6,39.4,29.97,ESE,115,0.0,0.0,85,0.00,,---,0.00,VWS V14.01,2013-10-30 13:12:00,
2013-10-30 06:17:00,43.5,39.3,29.97,ESE,111,0.0,0.0,85,0.00,,---,0.00,VWS V14.01,2013-10-30 13:17:00,
2013-10-30 06:22:00,43.5,39.0,29.97,East,94,0.0,0.0,84,0.00,,---,0.00,VWS V14.01,2013-10-30 13:22:00,
2013-10-30 06:27:00,43.5,39.0,29.97,East,94,1.0,0.0,84,0.00,,---,0.00,VWS V14.01,2013-10-30 13:27:00,
2013-10-30 06:32:00,43.4,38.9,29.97,East,94,0.0,0.0,84,0.00,,---,0.00,VWS V14.01,2013-10-30 13:32:00,
2013-10-30 06:37:00,43.4,38.9,29.97,SSE,165,0.0,0.0,84,0.00,,---,0.00,VWS V14.01,2013-10-30 13:37:00,
2013-10-30 06:42:00,43.3,39.1,29.97,ESE,116,0.0,0.0,85,0.00,,---,0.00,VWS V14.01,2013-10-30 13:42:00,
2013-10-30 06:47:00,43.3,38.8,29.97,ENE,74,1.0,0.0,84,0.00,,---,0.00,VWS V14.01,2013-10-30 13:47:00,
2013-10-30 06:52:00,43.2,38.7,29.98,NE,46,1.0,0.0,84,0.00,,---,0.00,VWS V14.01,2013-10-30 13:52:00,
2013-10-30 06:58:00,43.2,38.7,29.98,ESE,104,0.0,0.0,84,0.00,,---,0.00,VWS V14.01,2013-10-30 13:58:00,
2013-10-30 07:03:00,43.2,38.7,29.98,East,91,2.0,0.0,84,0.00,,---,0.00,VWS V14.01,2013-10-30 14:03:00,
2013-10-30 07:08:00,43.2,38.7,29.98,East,99,2.0,0.0,84,0.00,,---,0.00,VWS V14.01,2013-10-30 14:08:00,
2013-10-30 07:13:00,43.2,38.7,29.98,East,88,1.0,0.0,84,0.00,,---,0.00,VWS V14.01,2013-10-30 14:13:00,
2013-10-30 07:18:00,43.2,38.7,29.98,East,92,1.0,0.0,84,0.00,,---,0.00,VWS V14.01,2013-10-30 14:18:00,
2013-10-30 07:23:00,43.1,38.6,29.98,ENE,71,0.0,0.0,84,0.00,,---,0.00,VWS V14.01,2013-10-30 14:23:00,
2013-10-30 07:28:00,43.0,38.5,29.98,ENE,74,1.0,0.0,84,0.00,,---,0.00,VWS V14.01,2013-10-30 14:28:00,
2013-10-30 07:33:00,43.0,38.5,29.98,East,83,0.0,0.0,84,0.00,,---,0.00,VWS V14.01,2013-10-30 14:33:00,
2013-10-30 07:38:00,42.9,38.4,29.98,East,83,0.0,0.0,84,0.00,,---,0.00,VWS V14.01,2013-10-30 14:38:00,
2013-10-30 07:43:00,42.9,38.4,29.99,East,85,0.0,0.0,84,0.00,,---,0.00,VWS V14.01,2013-10-30 14:43:00,
2013-10-30 07:48:00,42.9,38.4,29.99,ENE,78,0.0,0.0,84,0.00,,---,0.00,VWS V14.01,2013-10-30 14:48:00,
2013-10-30 07:53:00,42.9,38.4,29.99,ENE,77,0.0,0.0,84,0.00,,---,0.00,VWS V14.01,2013-10-30 14:53:00,
2013-10-30 07:58:00,42.9,38.4,29.99,ENE,78,0.0,0.0,84,0.00,,---,0.00,VWS V14.01,2013-10-30 14:58:00,
2013-10-30 08:03:00,43.0,38.5,29.99,ENE,77,0.0,0.0,84,0.00,,---,0.00,VWS V14.01,2013-10-30 15:03:00,
2013-10-30 08:08:00,43.0,38.5,30.00,ENE,77,0.0,0.0,84,0.00,,---,0.00,VWS V14.01,2013-10-30 15:08:00,
2013-10-30 08:13:00,43.2,38.7,30.00,ENE,76,0.0,0.0,84,0.00,,---,0.00,VWS V14.01,2013-10-30 15:13:00,
2013-10-30 08:18:00,43.2,38.4,30.00,ENE,78,0.0,0.0,83,0.00,,---,0.00,VWS V14.01,2013-10-30 15:18:00,
2013-10-30 08:23:00,43.3,38.8,30.00,NW,325,0.0,0.0,84,0.00,,---,0.00,VWS V14.01,2013-10-30 15:23:00,
2013-10-30 08:28:00,43.4,38.6,30.01,NW,326,0.0,0.0,83,0.00,,---,0.00,VWS V14.01,2013-10-30 15:28:00,
2013-10-30 08:33:00,43.6,39.1,30.01,NW,325,0.0,0.0,84,0.00,,---,0.00,VWS V14.01,2013-10-30 15:33:00,
2013-10-30 08:38:00,43.7,38.9,30.01,NNW,327,0.0,0.0,83,0.00,,---,0.00,VWS V14.01,2013-10-30 15:38:00,
2013-10-30 08:43:00,43.8,38.7,30.01,ESE,102,0.0,0.0,82,0.00,,---,0.00,VWS V14.01,2013-10-30 15:43:00,
2013-10-30 08:48:00,44.0,38.9,30.01,East,92,1.0,0.0,82,0.00,,---,0.00,VWS V14.01,2013-10-30 15:48:00,
2013-10-30 08:53:00,44.2,39.1,30.02,East,92,0.0,0.0,82,0.00,,---,0.00,VWS V14.01,2013-10-30 15:53:00,
2013-10-30 08:58:00,44.4,39.3,30.02,East,81,0.0,0.0,82,0.00,,---,0.00,VWS V14.01,2013-10-30 15:58:00,
2013-10-30 09:03:00,44.5,39.4,30.02,East,80,0.0,0.0,82,0.00,,---,0.00,VWS V14.01,2013-10-30 16:03:00,
2013-10-30 09:08:00,44.8,39.3,30.02,East,80,0.0,0.0,81,0.00,,---,0.00,VWS V14.01,2013-10-30 16:08:00,
2013-10-30 09:13:00,45.0,39.2,30.02,East,84,0.0,0.0,80,0.00,,---,0.00,VWS V14.01,2013-10-30 16:13:00,
2013-10-30 09:19:00,45.3,39.5,30.02,East,92,0.0,0.0,80,0.00,,---,0.00,VWS V14.01,2013-10-30 16:19:00,
2013-10-30 09:24:00,45.7,40.2,30.02,East,93,0.0,0.0,81,0.00,,---,0.00,VWS V14.01,2013-10-30 16:24:00,
2013-10-30 09:29:00,46.1,40.0,30.03,East,98,1.0,0.0,79,0.00,,---,0.00,VWS V14.01,2013-10-30 16:29:00,
2013-10-30 09:34:00,46.9,40.4,30.03,East,91,0.0,0.0,78,0.00,,---,0.00,VWS V14.01,2013-10-30 16:34:00,
2013-10-30 09:39:00,47.6,40.4,30.03,East,101,0.0,0.0,76,0.00,,---,0.00,VWS V14.01,2013-10-30 16:39:00,
2013-10-30 09:44:00,48.4,40.5,30.03,ESE,109,0.0,0.0,74,0.00,,---,0.00,VWS V14.01,2013-10-30 16:44:00,
2013-10-30 09:49:00,49.1,40.5,30.03,East,84,0.0,0.0,72,0.00,,---,0.00,VWS V14.01,2013-10-30 16:49:00,
2013-10-30 09:54:00,49.8,41.2,30.03,East,91,4.0,0.0,72,0.00,,---,0.00,VWS V14.01,2013-10-30 16:54:00,
2013-10-30 09:59:00,50.4,40.6,30.03,ENE,78,2.0,0.0,69,0.00,,---,0.00,VWS V14.01,2013-10-30 16:59:00,
2013-10-30 10:04:00,50.8,41.0,30.03,ENE,69,1.0,0.0,69,0.00,,---,0.00,VWS V14.01,2013-10-30 17:04:00,
2013-10-30 10:09:00,51.3,40.7,30.03,East,93,0.0,0.0,67,0.00,,---,0.00,VWS V14.01,2013-10-30 17:09:00,
2013-10-30 10:14:00,51.8,41.2,30.03,East,94,1.0,0.0,67,0.00,,---,0.00,VWS V14.01,2013-10-30 17:14:00,
2013-10-30 10:19:00,52.4,41.0,30.03,East,98,1.0,0.0,65,0.00,,---,0.00,VWS V14.01,2013-10-30 17:19:00,
2013-10-30 10:24:00,53.0,41.6,30.03,South,178,0.0,0.0,65,0.00,,---,0.00,VWS V14.01,2013-10-30 17:24:00,
2013-10-30 10:29:00,53.7,41.4,30.03,SW,227,0.0,0.0,63,0.00,,---,0.00,VWS V14.01,2013-10-30 17:29:00,
2013-10-30 10:34:00,54.2,41.5,30.03,SW,229,0.0,0.0,62,0.00,,---,0.00,VWS V14.01,2013-10-30 17:34:00,
2013-10-30 10:39:00,54.6,40.6,30.03,NNE,19,0.0,0.0,59,0.00,,---,0.00,VWS V14.01,2013-10-30 17:39:00,
2013-10-30 10:44:00,55.1,41.0,30.03,North,5,0.0,0.0,59,0.00,,---,0.00,VWS V14.01,2013-10-30 17:44:00,
2013-10-30 10:49:00,55.7,41.2,30.03,East,97,0.0,0.0,58,0.00,,---,0.00,VWS V14.01,2013-10-30 17:49:00,
2013-10-30 10:54:00,56.0,40.5,30.03,East,98,0.0,0.0,56,0.00,,---,0.00,VWS V14.01,2013-10-30 17:54:00,
2013-10-30 10:59:00,56.4,40.0,30.03,ESE,105,0.0,0.0,54,0.00,,---,0.00,VWS V14.01,2013-10-30 17:59:00,
2013-10-30 11:04:00,56.6,40.6,30.03,NNW,327,0.0,0.0,55,0.00,,---,0.00,VWS V14.01,2013-10-30 18:04:00,
2013-10-30 11:09:00,56.9,40.4,30.03,North,5,0.0,0.0,54,0.00,,---,0.00,VWS V14.01,2013-10-30 18:09:00,
2013-10-30 11:14:00,57.3,41.3,30.04,West,259,2.0,0.0,55,0.00,,---,0.00,VWS V14.01,2013-10-30 18:14:00,
2013-10-30 11:19:00,57.6,41.1,30.04,NNW,336,0.0,0.0,54,0.00,,---,0.00,VWS V14.01,2013-10-30 18:19:00,
2013-10-30 11:24:00,57.7,41.2,30.04,WNW,296,0.0,0.0,54,0.00,,---,0.00,VWS V14.01,2013-10-30 18:24:00,
2013-10-30 11:29:00,57.9,40.4,30.04,NE,38,3.0,0.0,52,0.00,,---,0.00,VWS V14.01,2013-10-30 18:29:00,
2013-10-30 11:34:00,58.1,41.1,30.04,NE,41,1.0,0.0,53,0.00,,---,0.00,VWS V14.01,2013-10-30 18:34:00,
2013-10-30 11:39:00,58.2,41.2,30.04,NNW,343,0.0,0.0,53,0.00,,---,0.00,VWS V14.01,2013-10-30 18:39:00,
2013-10-30 11:45:00,58.5,41.0,30.04,NE,52,1.0,0.0,52,0.00,,---,0.00,VWS V14.01,2013-10-30 18:45:00,
2013-10-30 11:50:00,58.8,40.7,30.04,NNW,334,0.0,0.0,51,0.00,,---,0.00,VWS V14.01,2013-10-30 18:50:00,
2013-10-30 11:55:00,59.1,41.5,30.04,NNE,19,0.0,0.0,52,0.00,,---,0.00,VWS V14.01,2013-10-30 18:55:00,
2013-10-30 12:00:00,59.3,40.2,30.03,North,5,1.0,0.0,49,0.00,,---,0.00,VWS V14.01,2013-10-30 19:00:00,
2013-10-30 12:05:00,59.5,41.4,30.03,WNW,294,0.0,0.0,51,0.00,,---,0.00,VWS V14.01,2013-10-30 19:05:00,
2013-10-30 12:10:00,59.7,40.5,30.03,West,279,0.0,0.0,49,0.00,,---,0.00,VWS V14.01,2013-10-30 19:10:00,
2013-10-30 12:15:00,60.0,41.3,30.03,West,279,2.0,0.0,50,0.00,,---,0.00,VWS V14.01,2013-10-30 19:15:00,
2013-10-30 12:20:00,60.3,41.6,30.03,North,350,0.0,0.0,50,0.00,,---,0.00,VWS V14.01,2013-10-30 19:20:00,
2013-10-30 12:25:00,60.7,42.0,30.03,West,271,1.0,0.0,50,0.00,,---,0.00,VWS V14.01,2013-10-30 19:25:00,
2013-10-30 12:30:00,61.0,41.7,30.03,North,349,1.0,0.0,49,0.00,,---,0.00,VWS V14.01,2013-10-30 19:30:00,
2013-10-30 12:35:00,61.4,42.6,30.03,NW,310,0.0,0.0,50,0.00,,---,0.00,VWS V14.01,2013-10-30 19:35:00,
2013-10-30 12:40:00,61.7,42.9,30.02,WNW,282,4.0,0.0,50,0.00,,---,0.00,VWS V14.01,2013-10-30 19:40:00,
2013-10-30 12:45:00,61.5,41.7,30.02,NNW,344,2.0,0.0,48,0.00,,---,0.00,VWS V14.01,2013-10-30 19:45:00,
2013-10-30 12:50:00,61.4,42.1,30.02,ESE,103,5.0,0.0,49,0.00,,---,0.00,VWS V14.01,2013-10-30 19:50:00,
2013-10-30 12:55:00,61.6,41.7,30.02,East,86,2.0,0.0,48,0.00,,---,0.00,VWS V14.01,2013-10-30 19:55:00,
2013-10-30 13:00:00,61.2,41.9,30.02,ENE,59,2.0,0.0,49,0.00,,---,0.00,VWS V14.01,2013-10-30 20:00:00,
2013-10-30 13:05:00,61.1,42.8,30.01,NE,44,0.0,0.0,51,0.00,,---,0.00,VWS V14.01,2013-10-30 20:05:00,
2013-10-30 13:10:00,61.4,42.1,30.01,NNE,22,1.0,0.0,49,0.00,,---,0.00,VWS V14.01,2013-10-30 20:10:00,
2013-10-30 13:15:00,62.0,42.6,30.01,NW,317,0.0,0.0,49,0.00,,---,0.00,VWS V14.01,2013-10-30 20:15:00,
2013-10-30 13:20:00,62.5,43.1,30.01,ESE,109,5.0,0.0,49,0.00,,---,0.00,VWS V14.01,2013-10-30 20:20:00,
2013-10-30 13:25:00,62.7,43.3,30.01,NNW,332,0.0,0.0,49,0.00,,---,0.00,VWS V14.01,2013-10-30 20:25:00,
2013-10-30 13:30:00,63.4,43.4,30.01,NNW,331,2.0,0.0,48,0.00,,---,0.00,VWS V14.01,2013-10-30 20:30:00,
2013-10-30 13:35:00,64.2,43.0,30.01,NNE,32,3.0,0.0,46,0.00,,---,0.00,VWS V14.01,2013-10-30 20:35:00,
2013-10-30 13:40:00,64.8,43.0,30.00,ENE,61,3.0,0.0,45,0.00,,---,0.00,VWS V14.01,2013-10-30 20:40:00,
2013-10-30 13:45:00,65.0,43.7,30.00,NNW,335,1.0,0.0,46,0.00,,---,0.00,VWS V14.01,2013-10-30 20:45:00,
2013-10-30 13:50:00,65.5,43.0,30.00,North,5,1.0,0.0,44,0.00,,---,0.00,VWS V14.01,2013-10-30 20:50:00,
2013-10-30 13:55:00,66.0,42.9,30.00,ENE,69,5.0,0.0,43,0.00,,---,0.00,VWS V14.01,2013-10-30 20:55:00,
2013-10-30 14:00:00,66.4,43.2,30.00,NE,47,2.0,0.0,43,0.00,,---,0.00,VWS V14.01,2013-10-30 21:00:00,
2013-10-30 14:05:00,66.3,42.5,30.00,North,355,4.0,0.0,42,0.00,,---,0.00,VWS V14.01,2013-10-30 21:05:00,
2013-10-30 14:10:00,66.6,43.4,30.00,ENE,58,0.0,0.0,43,0.00,,---,0.00,VWS V14.01,2013-10-30 21:10:00,
2013-10-30 14:15:00,67.3,42.8,30.00,WSW,245,0.0,0.0,41,0.00,,---,0.00,VWS V14.01,2013-10-30 21:15:00,
2013-10-30 14:20:00,67.6,44.3,30.00,West,267,2.0,0.0,43,0.00,,---,0.00,VWS V14.01,2013-10-30 21:20:00,
2013-10-30 14:25:00,68.0,44.7,30.00,ENE,60,0.0,0.0,43,0.00,,---,0.00,VWS V14.01,2013-10-30 21:25:00,
2013-10-30 14:30:00,67.9,44.0,29.99,East,90,0.0,0.0,42,0.00,,---,0.00,VWS V14.01,2013-10-30 21:30:00,
2013-10-30 14:36:00,68.2,44.3,29.99,ENE,59,1.0,0.0,42,0.00,,---,0.00,VWS V14.01,2013-10-30 21:36:00,
2013-10-30 14:41:00,67.9,42.7,29.99,ENE,72,0.0,0.0,40,0.00,,---,0.00,VWS V14.01,2013-10-30 21:41:00,
2013-10-30 14:46:00,67.5,43.6,29.99,NE,54,1.0,0.0,42,0.00,,---,0.00,VWS V14.01,2013-10-30 21:46:00,
2013-10-30 14:51:00,67.2,43.4,29.99,NW,323,2.0,0.0,42,0.00,,---,0.00,VWS V14.01,2013-10-30 21:51:00,
2013-10-30 14:56:00,67.6,42.4,29.99,East,98,1.0,0.0,40,0.00,,---,0.00,VWS V14.01,2013-10-30 21:56:00,
2013-10-30 15:01:00,67.6,43.1,29.99,NNW,346,1.0,0.0,41,0.00,,---,0.00,VWS V14.01,2013-10-30 22:01:00,
2013-10-30 15:06:00,67.6,41.8,29.98,NNE,31,3.0,0.0,39,0.00,,---,0.00,VWS V14.01,2013-10-30 22:06:00,
2013-10-30 15:11:00,67.0,41.9,29.98,NNE,16,0.0,0.0,40,0.00,,---,0.00,VWS V14.01,2013-10-30 22:11:00,
2013-10-30 15:16:00,67.0,42.5,29.98,North,360,0.0,0.0,41,0.00,,---,0.00,VWS V14.01,2013-10-30 22:16:00,
2013-10-30 15:21:00,67.7,43.2,29.98,NNW,346,0.0,0.0,41,0.00,,---,0.00,VWS V14.01,2013-10-30 22:21:00,
2013-10-30 15:26:00,68.3,42.4,29.98,NNE,16,0.0,0.0,39,0.00,,---,0.00,VWS V14.01,2013-10-30 22:26:00,
2013-10-30 15:31:00,68.7,43.4,29.98,North,355,0.0,0.0,40,0.00,,---,0.00,VWS V14.01,2013-10-30 22:31:00,
2013-10-30 15:36:00,69.3,43.3,29.98,ENE,59,4.0,0.0,39,0.00,,---,0.00,VWS V14.01,2013-10-30 22:36:00,
2013-10-30 15:41:00,68.6,42.0,29.98,NE,34,2.0,0.0,38,0.00,,---,0.00,VWS V14.01,2013-10-30 22:41:00,
2013-10-30 15:46:00,68.0,41.5,29.98,NE,46,1.0,0.0,38,0.00,,---,0.00,VWS V14.01,2013-10-30 22:46:00,
2013-10-30 15:51:00,67.3,41.5,29.97,ENE,61,0.0,0.0,39,0.00,,---,0.00,VWS V14.01,2013-10-30 22:51:00,
2013-10-30 15:56:00,66.9,42.5,29.97,NE,53,1.0,0.0,41,0.00,,---,0.00,VWS V14.01,2013-10-30 22:56:00,
2013-10-30 16:01:00,66.5,41.5,29.97,East,85,1.0,0.0,40,0.00,,---,0.00,VWS V14.01,2013-10-30 23:01:00,
2013-10-30 16:06:00,66.0,41.7,29.97,ENE,72,2.0,0.0,41,0.00,,---,0.00,VWS V14.01,2013-10-30 23:06:00,
2013-10-30 16:11:00,65.2,41.5,29.97,ENE,61,2.0,0.0,42,0.00,,---,0.00,VWS V14.01,2013-10-30 23:11:00,
2013-10-30 16:16:00,65.0,42.0,29.97,NE,35,1.0,0.0,43,0.00,,---,0.00,VWS V14.01,2013-10-30 23:16:00,
2013-10-30 16:21:00,64.9,41.9,29.97,NE,46,3.0,0.0,43,0.00,,---,0.00,VWS V14.01,2013-10-30 23:21:00,
2013-10-30 16:26:00,64.7,41.7,29.97,NE,53,0.0,0.0,43,0.00,,---,0.00,VWS V14.01,2013-10-30 23:26:00,
2013-10-30 16:31:00,64.7,41.7,29.97,East,98,0.0,0.0,43,0.00,,---,0.00,VWS V14.01,2013-10-30 23:31:00,
2013-10-30 16:36:00,64.6,41.6,29.97,NE,39,0.0,0.0,43,0.00,,---,0.00,VWS V14.01,2013-10-30 23:36:00,
2013-10-30 16:41:00,64.4,41.4,29.97,NW,317,0.0,0.0,43,0.00,,---,0.00,VWS V14.01,2013-10-30 23:41:00,
2013-10-30 16:46:00,64.3,41.3,29.97,NE,43,0.0,0.0,43,0.00,,---,0.00,VWS V14.01,2013-10-30 23:46:00,
2013-10-30 16:51:00,64.1,41.2,29.97,ENE,65,0.0,0.0,43,0.00,,---,0.00,VWS V14.01,2013-10-30 23:51:00,
2013-10-30 16:57:00,63.9,41.0,29.97,ENE,60,1.0,0.0,43,0.00,,---,0.00,VWS V14.01,2013-10-30 23:57:00,
2013-10-30 17:02:00,63.8,41.5,29.97,SSE,153,0.0,0.0,44,0.00,,---,0.00,VWS V14.01,2013-10-31 00:02:00,
2013-10-30 17:07:00,63.6,41.9,29.97,NNW,329,0.0,0.0,45,0.00,,---,0.00,VWS V14.01,2013-10-31 00:07:00,
2013-10-30 17:12:00,63.4,41.7,29.97,NE,48,1.0,0.0,45,0.00,,---,0.00,VWS V14.01,2013-10-31 00:12:00,
2013-10-30 17:17:00,63.3,41.6,29.97,NE,42,0.0,0.0,45,0.00,,---,0.00,VWS V14.01,2013-10-31 00:17:00,
2013-10-30 17:22:00,63.1,42.0,29.97,North,9,0.0,0.0,46,0.00,,---,0.00,VWS V14.01,2013-10-31 00:22:00,
2013-10-30 17:27:00,63.0,41.9,29.97,NE,41,2.0,0.0,46,0.00,,---,0.00,VWS V14.01,2013-10-31 00:27:00,
2013-10-30 17:32:00,62.8,41.2,29.97,NE,42,3.0,0.0,45,0.00,,---,0.00,VWS V14.01,2013-10-31 00:32:00,
2013-10-30 17:37:00,62.5,42.0,29.97,NE,55,0.0,0.0,47,0.00,,---,0.00,VWS V14.01,2013-10-31 00:37:00,
2013-10-30 17:42:00,62.3,41.8,29.97,NNE,24,1.0,0.0,47,0.00,,---,0.00,VWS V14.01,2013-10-31 00:42:00,
2013-10-30 17:47:00,62.1,41.7,29.97,NNE,28,0.0,0.0,47,0.00,,---,0.00,VWS V14.01,2013-10-31 00:47:00,
2013-10-30 17:52:00,61.8,41.4,29.97,NE,52,0.0,0.0,47,0.00,,---,0.00,VWS V14.01,2013-10-31 00:52:00,
2013-10-30 17:57:00,61.6,41.7,29.97,ENE,59,0.0,0.0,48,0.00,,---,0.00,VWS V14.01,2013-10-31 00:57:00,
2013-10-30 18:02:00,61.4,41.6,29.97,ENE,57,0.0,0.0,48,0.00,,---,0.00,VWS V14.01,2013-10-31 01:02:00,
2013-10-30 18:07:00,61.2,41.4,29.97,NE,52,0.0,0.0,48,0.00,,---,0.00,VWS V14.01,2013-10-31 01:07:00,
2013-10-30 18:12:00,60.9,41.6,29.98,NE,53,0.0,0.0,49,0.00,,---,0.00,VWS V14.01,2013-10-31 01:12:00,
2013-10-30 18:17:00,60.5,41.3,29.98,NE,52,0.0,0.0,49,0.00,,---,0.00,VWS V14.01,2013-10-31 01:17:00,
2013-10-30 18:22:00,60.2,41.0,29.98,ENE,68,0.0,0.0,49,0.00,,---,0.00,VWS V14.01,2013-10-31 01:22:00,
2013-10-30 18:27:00,59.9,41.2,29.97,ENE,69,0.0,0.0,50,0.00,,---,0.00,VWS V14.01,2013-10-31 01:27:00,
2013-10-30 18:32:00,59.6,41.5,29.98,ENE,68,0.0,0.0,51,0.00,,---,0.00,VWS V14.01,2013-10-31 01:32:00,
2013-10-30 18:37:00,59.3,41.2,29.98,ENE,67,0.0,0.0,51,0.00,,---,0.00,VWS V14.01,2013-10-31 01:37:00,
2013-10-30 18:42:00,59.1,41.5,29.98,ENE,65,0.0,0.0,52,0.00,,---,0.00,VWS V14.01,2013-10-31 01:42:00,
2013-10-30 18:47:00,58.8,41.7,29.98,ENE,64,0.0,0.0,53,0.00,,---,0.00,VWS V14.01,2013-10-31 01:47:00,
2013-10-30 18:52:00,58.3,41.3,29.98,ENE,63,0.0,0.0,53,0.00,,---,0.00,VWS V14.01,2013-10-31 01:52:00,
2013-10-30 18:57:00,57.8,40.8,29.99,ENE,65,0.0,0.0,53,0.00,,---,0.00,VWS V14.01,2013-10-31 01:57:00,
2013-10-30 19:02:00,57.3,41.3,29.99,ENE,64,0.0,0.0,55,0.00,,---,0.00,VWS V14.01,2013-10-31 02:02:00,
2013-10-30 19:07:00,56.9,40.9,29.99,ENE,63,0.0,0.0,55,0.00,,---,0.00,VWS V14.01,2013-10-31 02:07:00,
2013-10-30 19:12:00,56.6,41.1,29.99,ENE,65,0.0,0.0,56,0.00,,---,0.00,VWS V14.01,2013-10-31 02:12:00,
2013-10-30 19:17:00,56.4,40.9,29.99,ENE,64,0.0,0.0,56,0.00,,---,0.00,VWS V14.01,2013-10-31 02:17:00,
2013-10-30 19:22:00,56.1,41.1,30.00,ENE,65,0.0,0.0,57,0.00,,---,0.00,VWS V14.01,2013-10-31 02:22:00,
2013-10-30 19:27:00,55.9,40.9,30.00,ENE,63,0.0,0.0,57,0.00,,---,0.00,VWS V14.01,2013-10-31 02:27:00,
2013-10-30 19:32:00,55.6,41.1,30.00,ENE,64,0.0,0.0,58,0.00,,---,0.00,VWS V14.01,2013-10-31 02:32:00,
2013-10-30 19:37:00,55.4,41.3,30.00,ENE,65,0.0,0.0,59,0.00,,---,0.00,VWS V14.01,2013-10-31 02:37:00,
2013-10-30 19:42:00,55.3,41.2,30.00,ENE,63,0.0,0.0,59,0.00,,---,0.00,VWS V14.01,2013-10-31 02:42:00,
2013-10-30 19:47:00,55.1,41.0,30.00,ENE,63,0.0,0.0,59,0.00,,---,0.00,VWS V14.01,2013-10-31 02:47:00,
2013-10-30 19:53:00,54.9,41.3,30.00,ENE,64,0.0,0.0,60,0.00,,---,0.00,VWS V14.01,2013-10-31 02:53:00,
2013-10-30 19:58:00,54.8,41.2,30.00,ENE,64,0.0,0.0,60,0.00,,---,0.00,VWS V14.01,2013-10-31 02:58:00,
2013-10-30 20:01:00,54.8,41.2,30.00,ENE,64,0.0,0.0,60,0.00,,---,0.00,VWS V14.01,2013-10-31 03:01:00,
2013-10-30 20:06:00,54.6,41.0,30.00,ENE,63,0.0,0.0,60,0.00,,---,0.00,VWS V14.01,2013-10-31 03:06:00,
2013-10-30 20:11:00,54.5,40.9,30.00,ENE,63,0.0,0.0,60,0.00,,---,0.00,VWS V14.01,2013-10-31 03:11:00,
2013-10-30 20:16:00,54.3,41.2,30.00,ENE,63,0.0,0.0,61,0.00,,---,0.00,VWS V14.01,2013-10-31 03:16:00,
2013-10-30 20:21:00,54.2,41.5,30.00,ENE,65,0.0,0.0,62,0.00,,---,0.00,VWS V14.01,2013-10-31 03:21:00,
2013-10-30 20:26:00,54.1,41.4,30.00,ENE,65,0.0,0.0,62,0.00,,---,0.00,VWS V14.01,2013-10-31 03:26:00,
2013-10-30 20:31:00,54.0,41.3,30.00,ENE,63,0.0,0.0,62,0.00,,---,0.00,VWS V14.01,2013-10-31 03:31:00,
2013-10-30 20:36:00,53.9,40.8,30.00,ENE,63,0.0,0.0,61,0.00,,---,0.00,VWS V14.01,2013-10-31 03:36:00,
2013-10-30 20:41:00,53.9,41.6,30.00,ENE,63,0.0,0.0,63,0.00,,---,0.00,VWS V14.01,2013-10-31 03:41:00,
2013-10-30 20:46:00,53.9,41.6,30.00,ENE,63,0.0,0.0,63,0.00,,---,0.00,VWS V14.01,2013-10-31 03:46:00,
2013-10-30 20:51:00,53.8,41.9,30.00,ENE,63,0.0,0.0,64,0.00,,---,0.00,VWS V14.01,2013-10-31 03:51:00,
2013-10-30 20:56:00,53.7,41.8,30.00,ENE,76,0.0,0.0,64,0.00,,---,0.00,VWS V14.01,2013-10-31 03:56:00,
2013-10-30 21:01:00,53.6,41.7,30.00,East,81,0.0,0.0,64,0.00,,---,0.00,VWS V14.01,2013-10-31 04:01:00,
2013-10-30 21:02:00,53.6,41.7,30.00,East,82,0.0,0.0,64,0.00,,---,0.00,VWS V14.01,2013-10-31 04:02:00,
2013-10-30 21:03:00,53.5,41.6,30.00,East,80,0.0,0.0,64,0.00,,---,0.00,VWS V14.01,2013-10-31 04:03:00,
2013-10-30 21:08:00,53.3,41.8,30.00,East,84,0.0,0.0,65,0.00,,---,0.00,VWS V14.01,2013-10-31 04:08:00,
2013-10-30 21:13:00,53.3,41.8,30.00,East,86,1.0,0.0,65,0.00,,---,0.00,VWS V14.01,2013-10-31 04:13:00,
2013-10-30 21:18:00,53.2,41.8,30.00,East,88,0.0,0.0,65,0.00,,---,0.00,VWS V14.01,2013-10-31 04:18:00,
2013-10-30 21:23:00,53.1,42.1,30.00,East,87,0.0,0.0,66,0.00,,---,0.00,VWS V14.01,2013-10-31 04:23:00,
2013-10-30 21:28:00,53.0,41.6,30.00,East,88,0.0,0.0,65,0.00,,---,0.00,VWS V14.01,2013-10-31 04:28:00,
2013-10-30 21:33:00,52.8,41.8,30.00,East,96,0.0,0.0,66,0.00,,---,0.00,VWS V14.01,2013-10-31 04:33:00,
2013-10-30 21:38:00,52.7,41.7,30.00,East,96,0.0,0.0,66,0.00,,---,0.00,VWS V14.01,2013-10-31 04:38:00,
2013-10-30 21:43:00,52.6,41.6,30.00,East,95,0.0,0.0,66,0.00,,---,0.00,VWS V14.01,2013-10-31 04:43:00,
2013-10-30 21:48:00,52.3,41.3,30.00,East,96,0.0,0.0,66,0.00,,---,0.00,VWS V14.01,2013-10-31 04:48:00,
2013-10-30 21:53:00,52.1,41.5,30.00,East,94,0.0,0.0,67,0.00,,---,0.00,VWS V14.01,2013-10-31 04:53:00,
2013-10-30 21:58:00,52.0,41.4,30.00,East,94,0.0,0.0,67,0.00,,---,0.00,VWS V14.01,2013-10-31 04:58:00,
2013-10-30 22:03:00,51.8,41.6,30.00,East,99,0.0,0.0,68,0.00,,---,0.00,VWS V14.01,2013-10-31 05:03:00,
2013-10-30 22:08:00,51.6,41.4,30.00,East,96,0.0,0.0,68,0.00,,---,0.00,VWS V14.01,2013-10-31 05:08:00,
2013-10-30 22:13:00,51.5,41.3,30.00,ESE,102,0.0,0.0,68,0.00,,---,0.00,VWS V14.01,2013-10-31 05:13:00,
2013-10-30 22:18:00,51.4,41.6,30.00,East,101,0.0,0.0,69,0.00,,---,0.00,VWS V14.01,2013-10-31 05:18:00,
2013-10-30 22:23:00,51.3,41.5,30.00,East,94,0.0,0.0,69,0.00,,---,0.00,VWS V14.01,2013-10-31 05:23:00,
2013-10-30 22:28:00,51.3,41.5,30.00,East,84,0.0,0.0,69,0.00,,---,0.00,VWS V14.01,2013-10-31 05:28:00,
2013-10-30 22:33:00,51.2,41.4,30.00,East,96,1.0,0.0,69,0.00,,---,0.00,VWS V14.01,2013-10-31 05:33:00,
2013-10-30 22:38:00,51.2,41.4,30.00,East,97,4.0,0.0,69,0.00,,---,0.00,VWS V14.01,2013-10-31 05:38:00,
2013-10-30 22:43:00,51.2,41.4,30.00,East,91,0.0,0.0,69,0.00,,---,0.00,VWS V14.01,2013-10-31 05:43:00,
2013-10-30 22:48:00,51.2,41.8,30.00,East,98,0.0,0.0,70,0.00,,---,0.00,VWS V14.01,2013-10-31 05:48:00,
2013-10-30 22:53:00,51.2,41.8,30.00,East,92,1.0,0.0,70,0.00,,---,0.00,VWS V14.01,2013-10-31 05:53:00,
2013-10-30 22:59:00,51.1,41.7,30.00,East,88,0.0,0.0,70,0.00,,---,0.00,VWS V14.01,2013-10-31 05:59:00,
2013-10-30 23:04:00,51.1,42.0,30.00,East,90,0.0,0.0,71,0.00,,---,0.00,VWS V14.01,2013-10-31 06:04:00,
2013-10-30 23:09:00,51.0,41.6,30.00,ENE,65,1.0,0.0,70,0.00,,---,0.00,VWS V14.01,2013-10-31 06:09:00,
2013-10-30 23:14:00,51.0,41.9,30.00,ENE,65,0.0,0.0,71,0.00,,---,0.00,VWS V14.01,2013-10-31 06:14:00,
2013-10-30 23:19:00,50.8,41.8,30.00,East,84,2.0,0.0,71,0.00,,---,0.00,VWS V14.01,2013-10-31 06:19:00,
2013-10-30 23:24:00,50.7,41.7,30.00,ESE,106,0.0,0.0,71,0.00,,---,0.00,VWS V14.01,2013-10-31 06:24:00,
2013-10-30 23:29:00,50.5,41.5,30.00,East,101,0.0,0.0,71,0.00,,---,0.00,VWS V14.01,2013-10-31 06:29:00,
2013-10-30 23:34:00,50.5,41.8,30.00,East,84,0.0,0.0,72,0.00,,---,0.00,VWS V14.01,2013-10-31 06:34:00,
2013-10-30 23:39:00,50.4,41.7,30.00,ESE,104,0.0,0.0,72,0.00,,---,0.00,VWS V14.01,2013-10-31 06:39:00,
2013-10-30 23:44:00,50.2,41.9,30.00,East,94,0.0,0.0,73,0.00,,---,0.00,VWS V14.01,2013-10-31 06:44:00,
2013-10-30 23:49:00,50.0,41.7,30.00,ESE,104,0.0,0.0,73,0.00,,---,0.00,VWS V14.01,2013-10-31 06:49:00,
2013-10-30 23:54:00,49.9,41.6,30.00,East,90,0.0,0.0,73,0.00,,---,0.00,VWS V14.01,2013-10-31 06:54:00,
2013-10-30 23:59:00,49.8,41.9,30.00,ESE,103,2.0,0.0,74,0.00,,---,0.00,VWS V14.01,2013-10-31 06:59:00,